Location: Writing-on-Stone Provincial Park
(49.0825°N, 111.6163°W)
Time: 13:50:26
(UTC-06:00)

Daily predictions for brighter satellites

Satellite Brightness Start Highest point End
(mag) Time Altitude Azimuth Time Altitude Azimuth Time Altitude Azimuth
Cosmos 1697 Rocket 3.3 20:41:13 10° SSE 20:46:14 34° ESE 20:51:15 10° NE
RESURS DK-1 2.5 20:45:42 10° NNW 20:49:50 64° ENE 20:53:57 10° SE
NOSS 2-1 (D) 4.5 20:46:58 10° WSW 20:50:54 53° NW 20:55:41 10° NE
NOSS 2-1 (C) 4.5 20:47:59 10° WSW 20:51:56 53° NW 20:56:44 10° NE
ERS-1 Rocket 3.5 20:50:03 10° SE 20:54:44 42° ENE 20:59:27 10° N
CZ-4 DEB 3.6 20:52:25 10° SE 20:55:15 31° ENE 20:58:06 10° N
ATLAS CENTAUR R/B 4.2 20:52:47 10° W 20:56:48 24° NNW 21:00:42 10° NNE
Cosmos 2150 Rocket 4.0 20:52:08 10° NNW 20:57:20 83° ENE 21:02:31 10° SSE
Cosmos 2278 3.9 20:53:08 10° SSW 20:58:50 84° WNW 21:04:36 10° NNE
Cosmos 1825 Rocket 4.3 20:55:32 10° N 20:59:37 35° ENE 21:03:39 10° SE
USA 186 1.4 20:57:08 10° SSE 21:00:05 89° ENE 21:02:50 10° NNW
Cosmos 1763 Rocket 4.5 21:02:28 10° SSE 21:06:31 24° E 21:10:33 10° NE
H-2A R/B 3.1 21:03:08 10° S 21:07:01 69° WSW 21:11:00 10° NNW
ALOS 2.8 21:02:28 10° S 21:07:06 62° W 21:11:45 10° NNW
Cosmos 1980 Rocket 2.8 21:05:17 10° SSE 21:10:16 33° ESE 21:15:18 10° NE
Cosmos 1898 Rocket 3.7 21:04:59 10° NNW 21:10:19 76° WSW 21:15:33 10° SSE
Cosmos 1953 Rocket 4.3 21:07:11 10° N 21:11:17 35° ENE 21:14:59 12° SE
Cosmos 2369 4.0 21:08:08 10° SW 21:13:49 74° WNW 21:19:34 10° NNE
Cosmos 1125 Rocket 4.4 21:11:35 10° N 21:16:20 34° NE 21:20:06 15° ESE
Cosmos 1626 Rocket 4.2 21:12:28 10° NNW 21:16:49 58° W 21:21:05 10° S
H-2A R/B 2.8 21:15:02 14° SE 21:18:06 34° ENE 21:21:53 10° N
Cosmos 2173 Rocket 4.2 21:12:22 10° SSE 21:18:26 50° E 21:24:29 10° NNE
Tiangong 1 3.1 21:18:20 10° WSW 21:20:32 18° SSW 21:22:11 12° SSE
Cosmos 1666 4.1 21:20:21 16° ESE 21:21:37 19° E 21:24:22 10° NE
Cosmos 967 Rocket 4.5 21:17:34 10° NW 21:23:59 87° NE 21:29:37 13° SE
Cosmos 1975 3.2 21:20:39 10° SSW 21:24:44 70° W 21:28:51 10° N
Cosmos 1605 Rocket 4.4 21:18:29 10° SSW 21:24:45 68° W 21:31:00 10° N
Cosmos 1656 3.6 21:19:33 10° SSW 21:25:10 84° ESE 21:30:45 10° NNE
Cosmos 468 Rocket 3.9 21:20:33 10° S 21:25:38 68° ESE 21:30:46 10° NNE
USA 215 3.9 21:21:53 10° E 21:28:09 51° NNE 21:34:26 10° WNW
YAOGAN 6 3.9 21:28:05 19° ESE 21:29:47 26° ENE 21:32:57 10° N
Cosmos 1758 Rocket 3.9 21:25:36 10° N 21:29:47 44° ENE 21:32:43 18° SE
Cosmos 841 Rocket 4.1 21:26:07 10° SSE 21:30:48 35° ESE 21:35:30 10° NE
YAOGAN 11 4.1 21:26:19 10° SSE 21:30:49 90° WSW 21:35:16 10° NNW
Cosmos 2263 Rocket 3.3 21:26:08 10° NNW 21:31:00 30° NE 21:34:33 16° E
Cosmos 1500 3.2 21:28:51 10° S 21:32:37 85° WNW 21:36:26 10° N
ASTEX 1 4.1 21:30:48 10° NNE 21:35:23 35° E 21:38:29 18° SE
Cosmos 2100 Rocket 4.0 21:29:14 10° S 21:35:26 70° E 21:41:38 10° NNE
Cosmos 1340 2.6 21:32:06 10° N 21:35:55 72° ENE 21:38:50 16° SSE
Cosmos 1814 Rocket 4.0 21:33:12 10° SSW 21:38:32 74° ESE 21:43:49 10° NNE
deb Chang Zheng 4 4.2 21:36:08 10° NNE 21:40:16 35° E 21:43:01 18° SSE
Tsikada Rocket 4.4 21:36:40 10° N 21:42:53 48° ENE 21:47:16 19° SE
Cosmos 2322 Rocket 3.2 21:42:28 20° SE 21:44:33 25° ESE 21:49:02 10° NE
Cosmos 2061 Rocket 3.9 21:42:44 10° S 21:49:02 80° E 21:55:17 10° NNE
Cosmos 2297 Rocket 4.4 21:46:52 10° NW 21:51:11 23° WSW 21:55:30 10° SSW
MetOp-A 4.1 21:54:18 22° SSE 21:57:48 67° ENE 22:03:08 10° N
Meteor 2-9 Rocket 4.4 21:54:07 17° SSE 21:58:02 47° E 22:03:10 10° NNE
Meteor 1-21 4.4 21:53:29 10° NNW 21:59:16 79° W 22:04:33 13° S
PSLV R/B 3.5 21:59:33 42° E 21:59:49 43° ENE 22:02:45 10° N
Cosmos 1459 Rocket 4.0 21:55:24 10° S 22:01:28 83° W 22:07:39 10° N
Cosmos 2360 4.2 21:55:55 10° S 22:01:30 57° ESE 22:07:07 10° NE
Cosmos 405 Rocket 3.5 21:58:39 10° N 22:02:04 31° ENE 22:02:30 31° E
Cosmos 2058 Rocket 3.2 21:59:39 24° SSE 22:02:12 54° E 22:06:37 10° NNE
Cosmos 1939 Rocket 3.5 22:00:05 14° S 22:03:36 55° W 22:07:44 10° NNW
Cosmos 1606 Rocket 3.5 21:59:49 10° S 22:04:14 85° E 22:08:43 10° N
Cosmos 1725 Rocket 4.1 22:02:49 17° SSE 22:07:34 57° E 22:13:42 10° NNE
Lacrosse 5 3.7 22:04:54 10° WNW 22:08:48 22° SW 22:12:11 12° S
Envisat 3.5 22:06:52 13° S 22:11:17 59° W 22:16:20 10° NNW
Cosmos 1743 3.6 22:11:15 10° SSW 22:15:04 51° WNW 22:18:55 10° N
Cosmos 332 Rocket 4.4 22:15:37 35° ESE 22:15:47 35° ESE 22:20:14 10° NE
CZ-4B R/B 4.0 22:14:38 10° NNE 22:18:58 34° E 22:19:01 34° E
CZ-4 SHROUD 3.1 22:19:09 69° ENE 22:19:09 69° ENE 22:22:09 10° N
SPOT 5 3.0 22:17:28 25° S 22:20:20 74° WSW 22:25:04 10° NNW
Cosmos 2278 Rocket 4.4 22:19:16 10° N 22:22:16 14° NNE 22:25:16 10° ENE
Landsat 7 4.4 22:22:23 36° E 22:23:25 41° ENE 22:27:53 10° N
Cosmos 1726 Rocket 3.8 22:23:09 14° SSW 22:26:52 68° WNW 22:31:18 10° N
Cosmos 2233 Rocket 4.1 22:27:36 34° SSE 22:30:01 53° E 22:36:05 10° NNE
Cosmos 1697 Rocket 3.7 22:24:37 10° SW 22:30:04 47° NW 22:35:31 10° NNE
CZ-4C R/B 4.2 22:30:50 37° E 22:31:14 38° ENE 22:35:16 10° N
IGS 5A 4.5 22:35:55 31° ENE 22:35:55 31° ENE 22:39:32 10° N
Cosmos 1812 Rocket 4.3 22:38:22 37° ENE 22:38:22 37° ENE 22:41:47 10° NNE
H-2A R/B 2.2 22:37:08 44° ESE 22:38:00 49° ENE 22:42:45 10° N
Terra 2.4 22:38:08 39° E 22:38:42 41° ENE 22:43:09 10° N
ARGOS 3.1 22:39:15 40° SSE 22:41:16 88° WSW 22:46:43 10° NNW
SL-16 R/B 2.1 22:39:37 32° S 22:42:10 62° ESE 22:47:47 10° NNE
Cosmos 1844 Rocket 4.0 22:37:42 10° NNW 22:42:22 26° NE 22:44:10 22° ENE
NOAA 11 4.1 22:40:38 39° S 22:42:46 85° WSW 22:48:16 10° NNW
Cosmos 836 Rocket 4.5 22:38:54 10° SSW 22:44:12 85° WNW 22:49:33 10° NNE
CZ-4 R/B 4.1 22:42:19 10° NNE 22:46:40 48° E 22:46:40 48° E
Cosmos 1763 Rocket 4.2 22:43:03 10° SW 22:48:01 52° WNW 22:52:58 10° NNE
Cosmos 783 Rocket 4.5 22:48:42 55° SSE 22:49:28 62° ESE 22:54:41 10° NNE
Cosmos 1707 3.3 22:49:15 10° N 22:52:29 48° NE 22:52:29 48° NE
Cosmos 1980 Rocket 3.1 22:48:36 10° SW 22:54:05 49° NW 22:59:39 10° NNE
H-2A R/B 3.8 22:52:11 18° SW 22:54:11 26° W 22:57:45 10° NW
Cosmos 2360 Rocket 3.3 22:56:06 29° ENE 22:56:06 29° ENE 22:59:37 10° NE
Cosmos 1666 4.1 22:55:19 23° SW 22:57:05 36° WNW 23:00:38 10° N
SPOT 1/Viking Rocket 3.9 22:55:41 39° SSW 22:57:29 61° WSW 23:02:39 10° NNW
Cosmos 2228 3.4 22:56:52 41° SW 22:58:06 59° WNW 23:02:22 10° N
Cosmos 1125 Rocket 4.4 22:53:38 10° NW 22:58:30 41° WSW 23:00:24 30° SSW
Cosmos 2098 Rocket 4.4 22:54:14 10° SSW 23:00:40 54° WNW 23:05:52 10° N
YAOGAN 6 4.3 23:02:35 25° WSW 23:03:19 27° W 23:06:33 10° NW
SL-19 R/B 4.2 23:00:23 10° NNE 23:05:54 78° WNW 23:08:02 37° SSW
Cosmos 1375 Rocket 4.4 23:00:19 10° SSW 23:06:54 84° SE 23:13:32 10° NE
USA 215 3.2 23:08:54 49° SE 23:10:55 88° SSW 23:17:30 10° WNW
Spot 4 4.0 23:11:11 58° ENE 23:11:11 58° ENE 23:15:48 10° N
Cosmos 2263 Rocket 2.4 23:09:49 10° NW 23:15:18 59° WSW 23:16:14 51° SSW
SL-08 RB Rocket 4.4 23:16:16 45° SW 23:16:53 48° W 23:21:24 10° NNW
Cosmos 1464 Rocket 4.1 23:17:16 56° ESE 23:17:50 58° E 23:24:04 10° NNE
Cosmos 540 Rocket 3.5 23:18:56 50° SW 23:20:13 74° WNW 23:25:23 10° NNE
GP-B 3.2 23:17:39 10° N 23:21:39 71° N 23:21:39 71° N
Celestis-02/Orion 38 4.5 23:23:48 78° S 23:24:11 86° WSW 23:29:27 10° NNW
Okean 3 Rocket 3.8 23:21:29 10° N 23:25:20 67° NNW 23:25:20 67° NNW
Nadezhda 4 Rocket 4.4 23:20:06 10° N 23:26:13 48° ENE 23:26:44 47° E
Cosmos 1441 Rocket 4.2 23:23:25 10° NNW 23:26:14 45° NNW 23:26:14 45° NNW
Cosmos 2322 Rocket 2.6 23:24:08 19° SW 23:28:10 61° WNW 23:33:46 10° NNE
Meteor 2-5 Rocket 4.2 23:25:48 10° NNW 23:31:36 57° W 23:32:50 48° SW
Cosmos 921 Rocket 4.2 23:27:23 10° N 23:30:43 36° NNE 23:30:43 36° NNE
Cosmos 2322 4.0 23:36:02 54° ENE 23:36:02 54° ENE 23:40:42 10° NNE
Cosmos 1408 Rocket 4.4 23:33:38 10° N 23:36:58 44° NNE 23:36:58 44° NNE
Meteor 1-24 Rocket 3.8 23:36:19 10° NNW 23:42:23 77° W 23:42:56 71° SSW
Cosmos 2333 Rocket 4.4 23:45:35 12° ENE 23:45:35 12° ENE 23:46:19 10° ENE
